Theta_e
330 326 325 327 324 320 320 316 301 301 300 295 299 299 300 306 305 305 306 309 313 319 322 325 325 322 318 318 317 317 318 316 317 314 312 327 335 337 340 343 346 348 352 354 356 354 349 345 349 350 351 358 358 358 358 358 358 358 356 355 352 348 349 354 357 357 356 356 356 356 356 356 356 356 355 354 353 352 351 350 351 349 349 348 347 347 347 347 346 346 347 348 349 349 348 348 349
323 323 327 326 322 318 310 314 302 301 297 298 299 302 303 305 306 305 306 308 313 319 322 323 323 320 320 323 323 320 316 318 321 321 324 330 335 338 340 346 348 346 353 354 357 356 351 350 349 350 350 354 358 358 358 358 358 358 356 355 352 349 348 348 356 357 356 356 356 356 356 356 355 355 355 353 350 349 350 351 348 350 350 348 347 346 346 346 346 346 347 347 348 348 347 347 347
322 323 321 321 321 315 314 309 296 297 295 294 298 301 305 304 304 307 308 311 317 320 321 320 320 317 317 319 315 315 312 319 322 328 329 332 330 335 341 348 350 352 352 355 356 355 353 352 348 352 350 352 356 358 358 358 358 358 358 356 350 349 348 346 347 356 356 356 356 356 355 355 355 355 354 353 353 352 352 351 350 348 349 349 347 346 346 346 345 345 345 346 347 347 347 346 348
324 323 321 318 310 314 306 303 299 298 294 297 299 303 304 304 305 309 312 313 316 317 317 316 313 314 314 312 313 318 316 317 320 324 327 330 331 337 345 349 352 353 355 356 355 354 352 351 349 352 349 350 354 358 359 358 358 358 358 357 353 351 349 347 348 352 355 356 355 355 355 355 355 353 352 352 352 352 351 351 350 349 348 348 347 347 346 346 345 345 345 346 346 347 348 346 346
321 323 323 317 311 302 303 300 300 300 295 299 297 303 304 305 307 310 311 312 314 314 314 314 313 314 316 314 315 315 314 320 325 329 327 329 337 340 345 349 350 352 353 354 351 351 355 350 350 352 349 350 354 358 358 358 358 358 358 358 357 353 353 352 354 355 355 355 353 354 353 353 354 353 352 352 352 351 351 350 350 349 349 349 349 348 348 348 346 345 345 346 347 347 347 345 345
319 321 321 318 309 313 306 299 296 298 301 302 300 301 304 306 308 311 310 311 312 313 312 312 311 310 310 311 316 315 316 316 322 323 325 328 333 337 341 349 350 351 352 354 355 354 356 347 347 350 351 351 353 355 358 358 358 358 358 357 357 357 356 355 356 355 355 354 353 353 352 353 352 351 352 352 351 352 351 350 350 350 350 349 349 349 349 348 347 347 345 345 346 346 346 345 344
317 317 314 313 309 309 298 298 298 299 302 303 303 303 304 307 310 310 309 309 311 311 313 310 313 312 309 313 315 318 320 321 321 322 325 327 333 338 343 348 349 351 353 355 357 352 353 346 346 349 351 351 352 354 357 357 357 357 358 357 357 357 356 355 355 354 354 354 353 352 351 351 351 350 350 351 351 351 351 350 350 350 350 350 350 350 349 347 345 346 345 345 346 346 344 343 344
322 315 310 305 301 302 297 300 300 301 302 303 303 303 305 310 311 309 308 307 305 308 309 311 312 311 309 315 310 317 320 322 322 324 326 331 336 341 343 349 348 348 349 355 357 356 353 348 348 346 343 344 347 351 352 358 357 356 357 357 356 356 356 355 354 353 353 353 353 352 351 351 351 349 349 351 351 351 350 350 350 350 350 350 350 349 347 345 345 345 346 346 346 345 344 344 344
318 315 312 306 301 300 300 299 300 303 302 303 303 305 310 311 311 309 307 308 308 310 309 308 308 307 308 312 313 317 320 321 324 327 329 333 339 341 343 348 348 347 349 350 354 357 356 347 343 342 340 341 341 341 342 345 357 356 356 356 355 355 354 354 353 352 351 351 352 351 351 351 350 348 349 352 352 351 350 350 350 350 349 349 349 348 346 345 346 346 346 346 346 345 344 344 344
312 312 302 302 302 296 298 299 299 301 302 302 303 304 308 310 309 310 307 305 308 309 309 309 309 307 310 309 312 316 319 321 324 326 330 335 339 341 344 347 347 348 348 349 350 351 353 347 341 341 342 342 343 341 342 341 349 356 355 355 353 353 353 353 352 351 350 351 351 352 351 351 350 350 350 351 351 350 350 349 349 349 349 347 347 347 345 344 345 346 345 345 345 344 344 344 344
306 307 311 300 298 297 295 298 300 301 301 303 303 305 307 311 309 307 307 308 309 308 308 310 306 307 311 311 314 318 320 320 321 323 329 333 337 342 344 346 346 348 347 351 352 353 352 347 342 338 340 339 340 341 343 343 342 350 353 353 353 353 353 352 352 352 351 351 351 352 352 351 350 350 351 351 350 350 350 349 349 348 348 347 346 347 345 344 344 344 344 344 345 344 344 344 344
306 303 303 296 297 297 299 299 299 301 302 303 302 304 307 308 308 305 306 305 308 307 306 309 306 310 307 309 311 317 318 318 321 324 327 331 334 337 337 337 341 343 348 350 352 353 351 349 342 339 339 338 339 339 340 344 344 345 352 352 353 353 352 352 352 352 352 351 351 351 351 352 352 352 351 351 351 350 349 349 348 348 348 346 346 347 346 343 343 343 343 344 344 343 344 344 344
306 304 302 298 299 300 299 299 300 299 301 302 302 304 307 305 304 305 306 307 307 306 305 308 310 312 306 308 314 316 315 318 321 324 326 327 331 331 334 333 334 333 337 343 347 351 350 345 348 342 338 338 338 338 340 342 345 346 350 352 353 352 352 352 352 352 352 351 351 351 352 352 352 351 351 350 351 350 350 349 348 347 346 346 346 346 346 344 343 342 342 342 344 345 344 344 343
304 305 303 296 303 299 299 299 300 298 300 302 304 305 306 304 305 307 307 305 305 305 308 311 311 311 307 310 311 314 316 318 321 324 325 327 329 328 330 329 331 329 330 333 334 340 350 350 349 347 342 343 342 340 340 344 346 346 347 351 352 351 351 351 351 350 351 351 351 351 352 352 352 351 348 349 351 350 349 348 348 347 346 346 345 344 344 344 343 343 341 340 342 343 344 344 343
306 308 303 300 300 299 299 298 299 298 300 302 302 303 303 305 306 306 306 304 305 310 311 314 311 309 305 308 307 312 315 318 323 325 327 328 326 327 326 328 330 329 327 327 328 331 337 345 348 348 349 349 348 346 346 345 344 346 346 347 349 351 351 351 351 350 352 352 352 352 352 352 352 349 346 345 345 341 349 348 348 348 347 346 345 344 343 343 342 343 342 341 341 343 342 344 343
308 306 303 298 297 297 299 299 300 299 300 303 303 304 304 304 305 305 305 308 307 310 311 309 311 310 308 309 311 315 317 319 325 327 325 324 325 324 323 325 325 326 327 327 327 327 330 337 343 344 346 347 346 347 349 349 345 345 345 345 346 346 351 351 351 351 351 352 352 352 351 352 350 350 347 347 344 342 341 345 348 348 347 346 346 344 343 343 343 343 344 342 342 343 343 343 342
310 306 299 298 296 298 300 299 300 297 302 302 304 304 302 302 305 306 308 310 307 307 309 311 310 313 311 312 315 316 319 323 325 325 324 322 321 320 321 321 321 325 326 326 327 327 326 329 336 341 344 346 346 345 346 349 347 345 344 343 343 346 349 352 352 352 352 352 352 351 347 351 350 345 349 344 344 345 342 343 347 347 347 347 346 345 344 343 344 344 343 342 341 341 341 341 342
306 300 299 297 299 298 302 300 301 303 301 302 303 304 303 301 304 306 310 308 308 308 309 310 311 312 314 314 317 318 320 320 322 321 320 319 320 318 318 318 318 320 321 323 325 325 326 327 329 336 342 345 346 345 346 346 347 346 348 349 349 349 349 352 353 354 352 351 348 350 348 345 347 350 345 346 347 345 345 345 344 347 347 346 347 346 346 345 344 343 341 340 339 339 338 336 341
302 301 300 298 301 302 304 303 303 302 302 303 303 304 304 303 305 307 305 304 305 305 307 309 309 311 312 314 316 317 318 320 320 321 319 318 317 318 316 318 320 319 319 320 324 324 326 326 327 330 338 343 344 346 346 346 346 346 348 347 347 347 350 347 346 342 345 345 345 345 344 346 348 349 351 347 344 342 347 346 345 344 346 346 346 346 345 344 342 342 341 339 338 337 335 335 335
305 303 298 300 302 302 304 303 303 304 304 302 302 303 303 304 305 306 304 303 304 304 306 306 306 307 310 312 314 316 318 318 320 320 318 318 318 318 317 318 317 319 319 318 322 325 324 325 326 330 335 341 342 345 346 344 346 346 347 347 347 349 351 348 345 343 343 346 343 345 348 350 345 348 346 347 346 343 346 345 345 343 346 346 347 346 345 343 341 340 339 337 336 336 334 334 333
305 302 300 301 302 301 302 304 303 303 304 303 303 303 302 303 304 305 303 303 302 305 306 306 306 307 310 313 315 316 317 317 318 319 318 318 319 318 318 317 318 317 318 319 321 324 324 324 325 327 331 337 339 342 346 345 344 344 345 347 346 348 348 350 350 345 347 349 344 346 346 349 344 349 347 351 350 343 347 346 346 342 344 348 345 342 341 341 340 337 335 334 335 335 333 333 335
304 301 303 302 303 300 303 303 303 303 303 304 303 302 302 305 304 303 304 302 304 306 307 306 307 310 312 314 316 316 315 317 317 317 318 319 318 315 317 319 322 321 319 317 318 323 322 320 322 326 328 332 338 339 342 343 345 343 343 345 346 346 347 349 349 347 346 350 351 344 345 349 348 347 349 347 347 347 346 349 347 345 344 339 340 340 338 339 338 338 336 335 336 337 336 335 336
300 302 302 303 303 301 303 303 301 301 303 303 302 303 304 303 302 304 304 303 303 305 306 307 308 310 313 317 317 316 315 316 316 316 317 317 316 316 319 318 318 318 317 316 320 321 322 321 321 322 326 330 333 334 338 340 343 342 340 341 342 344 347 346 344 344 349 350 349 347 343 345 347 346 345 347 345 347 343 343 343 341 341 341 338 340 339 340 338 337 337 338 338 337 335 335 335
303 301 302 302 302 302 303 301 300 301 301 301 303 304 303 302 300 303 302 303 304 305 306 308 310 312 313 316 317 316 316 316 317 317 316 316 319 320 320 318 318 319 318 319 319 320 321 320 321 322 324 326 330 330 333 334 336 336 335 336 335 337 340 342 344 344 346 347 350 349 348 346 346 345 346 346 346 347 345 342 340 341 343 342 340 341 339 339 338 338 340 339 337 336 334 335 332
301 301 302 302 302 302 302 302 301 301 301 302 302 301 301 301 301 302 302 303 305 306 307 308 309 311 312 315 315 316 316 317 317 318 320 319 323 323 321 319 320 319 319 320 320 319 320 321 323 323 324 324 326 328 329 331 331 332 331 332 333 330 330 335 341 345 345 345 349 350 349 346 344 345 346 347 351 345 347 345 342 341 342 342 342 339 338 338 338 338 338 338 338 337 335 335 331
302 302 303 302 302 303 301 301 301 301 301 302 301 300 300 300 301 300 302 302 305 307 307 308 308 310 310 313 315 316 316 317 318 318 318 323 323 321 321 319 319 319 319 321 321 320 321 321 321 321 323 323 325 325 327 328 329 329 329 328 329 329 331 330 332 337 342 345 346 348 349 350 347 348 347 348 346 348 347 347 345 342 341 342 344 340 338 338 337 338 338 338 334 336 334 334 332
304 302 302 302 302 302 301 301 301 301 302 301 300 299 300 302 300 299 303 304 306 306 306 308 308 309 309 312 315 316 315 317 317 319 319 320 320 320 321 321 319 318 322 321 320 320 321 319 320 320 322 326 324 323 326 327 328 327 326 327 328 328 328 330 332 331 333 338 343 348 348 348 348 347 345 347 344 345 347 346 346 344 343 344 343 340 341 339 338 338 338 337 336 334 333 333 332
303 303 302 301 301 302 301 301 301 302 300 301 301 299 300 301 300 301 303 305 306 306 306 306 307 308 308 311 312 314 316 317 317 320 317 316 314 317 319 319 319 318 321 321 320 321 322 320 319 323 324 327 326 323 324 325 326 326 327 327 326 327 328 326 328 332 334 330 334 341 344 346 348 349 347 347 344 347 347 346 344 344 344 343 343 341 341 340 339 337 338 340 339 338 335 334 334
302 302 298 299 300 299 300 300 300 301 300 301 301 299 297 299 298 302 304 306 306 306 305 306 307 307 309 309 311 311 312 316 318 315 314 314 315 318 318 321 320 319 320 320 320 323 324 324 322 323 324 326 325 324 324 324 324 325 325 326 327 328 329 326 325 326 332 332 332 337 340 343 345 348 351 345 341 345 348 349 345 344 344 344 345 344 342 342 339 338 339 340 338 336 336 334 332
302 301 300 297 297 297 300 301 300 299 301 300 300 292 297 299 301 302 304 305 305 305 305 305 306 308 308 309 309 311 312 314 315 314 314 315 318 318 319 321 323 321 319 320 324 323 324 325 325 325 324 323 324 323 324 322 323 324 324 325 327 327 328 328 326 327 327 331 332 333 336 339 341 346 346 348 347 343 346 345 343 341 343 344 345 346 344 342 338 337 337 338 336 334 332 332 330
298 299 300 296 295 295 300 299 300 298 300 300 300 292 298 299 301 303 303 304 304 304 305 305 306 307 308 309 309 309 312 315 314 317 317 321 318 318 320 322 323 324 320 321 323 323 325 325 325 325 325 324 324 324 323 323 324 324 322 323 324 326 327 328 328 328 327 328 330 330 332 335 335 337 341 345 347 345 344 344 345 342 343 345 344 344 342 343 340 337 337 335 336 333 332 330 330
300 295 293 297 294 297 298 300 299 296 299 301 299 293 297 299 301 303 303 304 305 304 305 305 306 307 308 308 308 308 310 313 316 319 322 324 322 319 320 323 324 324 324 324 325 325 325 327 325 325 325 326 325 323 324 324 324 325 324 323 325 326 325 327 328 327 327 327 329 331 331 331 331 336 338 339 342 341 343 341 343 348 346 342 342 343 342 341 340 337 337 337 334 332 331 330 330
298 296 296 295 296 297 296 298 300 299 298 300 299 295 298 298 301 303 304 304 304 304 305 306 306 307 308 308 308 308 309 312 314 316 320 322 321 321 320 322 323 325 325 326 325 325 325 326 325 325 325 324 325 325 325 324 325 323 324 325 324 325 324 324 325 327 327 328 328 327 331 333 333 332 333 334 338 338 341 340 343 346 348 344 342 342 341 339 340 336 338 338 337 335 330 329 331
295 298 294 297 295 296 295 297 300 299 298 297 299 297 298 300 301 302 303 304 304 304 305 306 306 307 308 308 308 308 309 310 312 313 318 320 318 322 321 321 325 326 326 327 326 327 326 326 326 327 325 324 324 324 325 324 323 325 324 322 325 326 326 325 324 324 326 327 328 327 327 328 329 330 329 331 333 331 334 337 337 338 337 343 344 341 338 337 338 339 338 338 337 337 333 330 329
293 294 294 295 295 296 295 295 297 299 298 297 298 297 298 299 301 302 303 304 304 304 304 305 306 306 307 307 308 308 309 310 312 313 317 320 321 322 321 322 326 328 327 327 327 326 326 326 325 326 325 324 324 325 325 325 324 324 324 325 325 325 325 325 326 325 325 326 327 327 327 328 328 329 330 329 328 329 330 328 328 331 333 335 338 341 338 337 337 337 336 337 338 337 336 332 331
295 295 295 295 294 295 295 298 299 299 297 296 296 296 297 299 300 302 303 304 303 303 305 305 306 306 307 307 307 308 309 310 313 316 317 320 321 321 322 320 325 328 327 327 327 327 326 326 326 326 325 323 322 324 322 318 316 315 315 318 319 322 324 323 326 325 325 325 326 326 326 327 326 327 328 329 327 326 326 327 327 329 330 329 330 333 331 336 336 336 335 334 334 335 334 333 331
297 296 295 295 294 295 296 296 299 301 299 297 297 298 298 299 301 302 302 303 303 303 303 304 305 306 305 306 307 307 309 310 312 316 318 322 323 322 323 321 323 327 328 327 326 325 326 324 325 326 326 323 321 320 318 316 314 313 315 317 316 318 320 323 324 326 325 325 326 325 326 325 326 327 326 327 329 327 326 327 326 326 329 328 329 332 333 335 338 336 336 334 332 331 331 332 330
297 296 295 295 294 293 296 297 300 301 297 296 299 297 298 299 301 302 304 303 302 303 303 304 305 306 306 306 307 307 309 312 313 317 321 322 320 324 325 323 324 324 326 326 325 324 326 327 324 326 324 322 322 321 321 322 318 315 315 315 315 315 316 319 320 324 324 325 326 326 326 326 325 326 326 327 327 327 327 327 328 329 330 331 331 332 335 335 335 338 337 335 334 332 329 330 329
297 296 296 293 295 295 297 298 300 300 298 295 298 296 297 299 301 303 303 304 305 305 305 305 306 306 306 307 307 308 309 311 315 316 318 318 320 321 323 324 323 323 324 326 326 325 327 326 325 325 323 321 321 321 321 319 321 321 319 317 316 315 320 322 322 323 324 323 324 324 324 325 324 325 326 326 326 327 327 327 328 329 330 332 333 335 336 334 336 336 337 335 331 331 330 331 331
296 296 293 292 294 292 292 296 299 300 297 296 298 296 297 300 301 302 304 304 305 307 308 308 307 305 306 307 308 309 311 312 313 314 317 317 319 320 321 322 323 324 325 326 326 327 326 323 326 325 323 321 321 321 318 322 321 322 323 321 321 319 317 321 324 325 323 323 322 323 323 323 323 324 325 324 326 326 327 327 328 328 329 331 333 332 332 332 333 334 335 333 333 327 329 327 330
297 296 294 293 293 294 294 296 298 299 300 300 296 294 294 297 297 299 302 304 305 306 305 305 307 308 309 311 313 314 313 313 313 315 316 318 318 319 320 321 323 324 324 323 327 326 326 325 326 325 322 321 319 319 321 322 322 323 322 324 323 320 320 319 320 320 320 320 320 321 321 322 322 322 323 325 325 326 327 327 328 329 330 331 331 331 329 331 334 335 333 332 332 330 327 330 327
295 297 296 295 295 294 294 295 294 292 292 298 295 288 289 295 296 298 302 302 301 302 302 303 305 306 307 308 311 313 315 315 315 315 316 318 318 319 320 320 322 323 322 325 328 327 327 325 326 324 322 319 318 320 320 321 319 318 316 313 313 313 313 314 314 315 316 317 317 319 320 320 320 321 322 323 323 325 326 326 328 329 331 330 331 332 333 336 336 335 335 334 333 332 329 327 325
291 294 298 297 296 296 295 295 294 289 288 295 298 287 285 295 295 297 299 300 300 303 303 303 304 305 306 307 308 310 313 314 315 317 317 315 315 316 318 320 322 322 323 327 328 328 327 327 326 323 321 319 318 318 319 319 319 318 318 316 316 315 313 315 316 317 316 317 317 318 318 319 319 320 321 322 323 323 324 325 326 326 327 330 331 332 332 333 334 334 335 334 334 332 331 326 327
292 299 298 297 296 295 295 296 295 293 297 297 297 294 287 288 294 298 299 299 299 301 302 303 304 306 306 307 308 310 311 314 316 315 316 316 315 316 317 321 322 322 325 328 327 326 326 326 325 322 320 318 319 319 320 317 318 317 316 317 315 315 314 314 315 316 316 316 315 317 317 318 319 320 320 320 321 322 323 323 324 325 324 326 328 330 331 333 334 335 335 334 334 334 331 326 328
296 300 298 296 296 297 297 295 295 295 292 288 295 296 288 288 294 298 298 295 297 298 301 303 304 305 306 307 307 308 310 313 313 313 314 314 316 316 317 318 322 325 327 326 325 326 326 326 324 322 320 318 319 319 319 319 316 316 315 315 315 314 314 313 314 314 314 315 315 315 317 317 318 319 319 319 320 321 321 322 323 323 323 325 324 326 330 331 333 333 335 330 330 331 330 328 328
301 302 300 299 299 298 297 295 294 294 291 285 292 295 286 287 293 295 297 295 295 298 300 302 304 305 305 306 307 308 309 311 313 312 313 315 316 317 320 324 326 327 327 325 326 326 326 325 323 321 319 318 318 318 318 319 318 316 315 315 314 314 314 314 314 314 314 314 313 314 315 315 316 317 318 319 319 319 320 322 321 322 323 324 324 325 327 329 330 333 333 334 333 332 332 330 328
302 300 297 297 297 296 296 295 294 291 284 287 293 295 291 284 292 293 294 295 298 299 301 303 304 305 305 307 307 307 308 309 309 311 314 316 321 324 325 324 324 325 326 324 324 325 325 324 323 320 320 318 318 318 318 318 318 317 315 315 314 313 313 313 313 312 313 313 312 312 313 314 315 315 316 317 317 318 319 320 321 321 322 322 322 323 325 326 329 331 332 333 333 332 331 330 327
300 297 295 295 293 295 293 292 294 284 282 290 294 293 293 283 289 295 297 299 298 300 300 301 302 303 304 306 306 307 308 308 309 310 311 314 320 322 323 322 322 323 324 323 323 324 323 323 322 320 319 319 317 317 317 317 317 316 315 315 314 313 312 312 312 311 312 311 311 310 312 313 313 314 316 316 317 317 317 318 320 321 320 322 321 323 326 327 328 330 331 333 332 333 332 329 328
299 297 294 289 287 287 283 288 282 284 282 291 293 293 290 288 293 296 297 298 299 301 301 301 302 302 304 305 306 306 307 308 308 309 311 312 315 319 320 321 322 323 323 323 322 323 323 322 321 319 319 318 316 317 316 317 316 316 314 314 314 313 313 313 312 312 312 311 311 311 310 310 312 312 314 313 315 316 316 316 317 317 318 320 322 322 323 325 326 327 329 331 331 331 331 331 328
296 293 292 288 283 282 278 284 286 286 290 293 293 295 287 292 295 299 298 300 301 302 302 303 302 303 304 304 306 306 307 308 308 309 310 312 313 313 315 316 319 323 324 324 323 322 322 321 321 319 319 319 317 315 316 316 316 315 315 313 313 312 312 312 312 311 312 312 311 311 310 310 309 310 311 312 313 314 315 315 316 316 317 319 320 320 322 324 325 325 326 327 330 330 331 330 330
295 297 295 290 288 285 279 283 279 282 285 289 294 287 284 285 290 299 300 301 302 302 303 304 304 304 305 305 306 306 306 308 307 308 309 310 312 313 317 320 320 323 325 324 324 323 322 321 320 319 318 318 315 315 316 315 315 315 314 314 313 313 312 312 312 311 311 311 312 311 310 310 309 310 310 311 311 312 312 313 314 314 315 317 317 319 320 322 324 323 324 326 327 329 330 330 331
298 298 296 292 288 293 285 287 287 286 285 284 286 285 290 292 299 300 302 301 301 302 302 303 303 304 304 304 304 305 305 305 307 308 309 311 312 313 314 321 322 321 324 325 323 323 322 321 320 319 318 318 315 315 315 314 314 314 314 313 313 312 310 311 310 310 311 312 311 311 311 311 311 311 311 311 311 310 310 311 311 312 314 315 316 317 319 320 321 322 323 323 324 327 328 331 329
295 295 290 293 299 295 288 288 291 286 284 282 289 289 293 297 298 299 300 300 300 301 301 301 302 302 304 304 304 304 305 305 307 308 308 309 310 312 313 313 315 323 326 324 323 322 321 320 319 319 318 318 315 314 314 314 313 313 313 312 312 312 311 310 310 311 311 311 311 311 311 311 312 311 311 311 310 310 310 310 310 311 313 314 314 316 317 318 320 321 321 323 323 325 326 327 332
296 290 294 298 300 299 290 283 285 283 280 282 288 284 287 289 285 298 298 298 299 299 300 301 302 303 302 303 304 304 304 306 307 308 309 309 309 310 311 312 314 323 324 323 322 321 321 320 319 318 317 317 314 314 313 313 313 312 312 312 312 312 311 311 310 310 311 310 311 310 310 310 311 312 311 310 309 309 309 309 309 309 310 311 312 312 314 316 319 319 320 321 322 324 324 326 329
296 293 300 292 285 285 291 286 278 279 279 281 285 288 287 290 289 295 295 297 298 299 300 300 300 301 302 303 304 305 306 306 306 307 307 308 309 310 311 312 313 323 322 321 319 319 318 318 318 318 318 316 314 314 313 313 313 312 312 312 312 312 312 311 310 310 310 309 309 309 310 310 310 310 309 309 308 308 308 308 309 308 308 308 310 311 312 313 315 317 318 319 322 323 322 323 326
299 300 296 298 294 289 286 286 287 285 279 281 282 287 284 293 293 296 296 298 299 299 299 300 300 301 302 303 303 304 305 306 306 307 307 308 309 310 310 311 314 319 319 318 317 317 316 317 317 318 318 316 314 313 312 312 312 312 311 311 311 310 310 310 310 310 309 308 308 308 308 308 308 308 309 308 307 307 307 307 307 307 307 308 308 310 311 312 314 315 317 318 320 321 321 321 322
293 293 292 294 293 297 294 293 288 285 281 281 281 280 287 294 298 297 298 299 300 300 300 301 301 302 303 303 304 305 306 306 307 307 308 308 310 311 311 314 315 316 317 317 316 316 316 316 316 315 316 314 313 313 312 312 312 311 311 311 311 311 310 310 310 309 309 308 308 307 307 307 307 307 307 306 306 305 305 306 306 306 306 306 306 307 309 310 311 313 316 317 318 319 319 320 320
295 293 292 293 291 288 285 282 292 289 285 281 281 280 288 296 301 300 299 301 301 301 301 301 302 302 304 305 306 306 306 307 308 308 309 309 310 310 310 315 314 314 314 315 315 314 315 315 314 315 314 313 312 312 311 311 311 312 311 311 311 310 310 310 310 309 308 307 307 307 307 306 305 305 306 305 305 305 305 305 304 304 305 305 306 306 307 308 309 310 311 315 317 318 318 319 321
Wind_Speed
8 4 3 4 5 5 5 6 6 5 5 7 4 6 6 2 1 7 7 7 6 5 4 5 5 4 3 8 14 13 13 9 7 3 3 4 2 5 4 5 5 3 3 4 6 8 7 2 5 2 4 7 9 9 9 9 10 11 13 15 16 11 9 11 15 17 15 15 14 14 14 13 12 11 11 12 10 9 13 16 16 15 17 17 17 15 15 16 14 14 14 14 15 16 16 17 18
3 3 4 4 5 5 5 3 5 5 6 5 5 4 7 6 5 7 9 3 6 6 5 7 7 7 6 8 8 8 12 12 11 9 7 6 3 8 5 6 5 3 4 3 3 5 8 7 2 2 3 5 8 10 10 9 9 11 14 15 18 15 7 8 11 17 16 15 15 14 13 14 14 12 11 12 13 10 9 13 13 16 16 16 16 14 14 15 15 13 13 13 14 15 16 17 19
4 5 5 5 5 6 1 5 6 5 7 8 6 4 6 6 7 7 5 7 9 8 7 7 6 5 5 5 5 6 7 6 8 9 7 4 4 5 6 6 4 5 5 4 4 4 7 8 2 1 4 2 5 8 10 11 10 10 13 16 18 17 15 11 5 13 16 16 15 15 14 13 12 14 13 13 11 9 9 11 13 15 14 14 15 14 13 14 14 14 13 12 13 14 16 17 20
5 4 5 5 6 5 6 5 6 5 7 6 4 6 8 6 7 8 9 9 8 6 5 7 4 4 6 6 9 10 8 7 7 3 6 5 5 3 9 4 6 6 4 3 4 3 6 9 4 7 7 3 3 7 8 10 10 10 11 14 17 18 19 16 13 13 12 13 15 15 14 13 12 13 14 11 10 10 9 11 12 15 14 14 14 14 14 13 14 14 14 12 13 15 17 17 19
6 3 5 6 4 7 6 5 6 5 8 4 3 9 7 5 9 9 8 6 5 4 3 6 5 5 10 10 3 1 8 8 8 7 7 6 4 5 5 5 5 5 5 6 7 3 8 7 6 7 8 6 7 6 7 9 10 10 9 12 15 17 18 17 16 16 13 13 14 14 14 13 12 13 12 11 10 10 10 10 11 12 12 12 12 12 12 12 13 14 14 14 14 16 18 17 18
5 5 4 6 4 5 4 4 7 8 2 4 0 7 8 6 10 10 9 6 5 3 2 3 1 7 5 6 7 7 1 2 5 6 4 6 5 5 5 5 5 7 6 6 4 6 8 6 4 7 7 6 7 4 6 9 9 10 9 11 12 13 14 15 15 14 15 13 13 14 14 13 12 12 11 10 10 10 9 10 10 10 11 11 11 10 11 11 12 11 13 14 15 17 18 18 17
5 6 5 5 3 5 6 7 7 8 5 2 4 4 7 8 10 11 11 9 4 5 1 3 6 10 8 6 9 8 6 5 4 6 5 5 6 6 7 8 9 9 8 6 5 8 9 5 3 4 7 5 5 5 3 8 10 9 10 11 12 13 14 13 12 14 14 14 14 14 14 13 12 13 11 11 11 11 10 10 10 10 11 11 10 10 11 14 13 12 13 14 14 15 15 16 17
4 7 6 7 5 6 7 6 6 7 6 2 2 2 7 9 10 10 11 8 8 4 5 4 1 3 9 4 5 6 8 8 9 5 4 5 7 7 8 8 9 10 8 7 6 7 11 7 7 7 13 13 13 9 6 4 9 9 9 10 11 12 13 13 12 13 13 15 15 15 13 13 14 13 10 10 12 11 11 11 10 11 10 10 9 10 13 15 14 14 15 15 15 15 15 16 16
6 6 1 6 6 5 7 7 4 2 5 3 4 4 2 9 9 9 9 4 8 5 6 3 3 5 7 7 7 8 7 7 8 6 6 6 8 8 7 10 10 10 9 8 7 6 6 14 18 19 15 10 9 5 6 7 5 8 9 10 10 10 11 12 13 12 12 13 14 15 14 13 13 13 10 9 11 11 11 12 11 11 10 10 10 11 14 15 15 15 15 15 16 15 16 16 15
6 6 7 6 4 8 7 7 6 7 5 4 2 7 7 8 7 6 7 7 6 7 6 3 4 5 10 11 10 8 7 7 7 8 7 8 8 9 10 10 10 10 9 9 8 8 6 16 22 14 11 6 7 3 1 4 6 7 7 10 10 10 10 11 11 11 11 12 13 13 12 12 11 11 12 12 12 11 11 11 11 11 10 11 11 11 13 15 15 15 15 15 16 16 17 16 15
6 6 3 7 7 7 8 6 6 7 5 5 5 5 6 7 7 5 3 6 5 6 5 3 6 9 8 9 7 7 7 6 7 9 7 8 9 9 9 9 9 9 9 10 10 8 8 11 17 7 7 8 12 8 9 7 1 2 7 8 10 10 11 11 11 11 11 11 11 11 11 11 11 11 10 12 12 11 11 11 11 11 10 11 11 10 12 15 15 14 14 14 14 14 14 14 13
6 7 6 8 7 7 7 5 7 5 6 5 6 9 5 7 6 7 6 8 6 7 6 4 5 6 8 7 7 8 8 8 7 7 7 8 9 10 10 9 10 11 10 9 10 10 8 10 11 5 7 7 7 9 7 5 4 2 3 8 8 9 10 10 11 11 11 10 10 10 10 10 11 11 11 11 11 11 11 10 11 10 10 11 10 9 10 14 14 13 12 12 13 12 12 12 11
8 5 8 7 6 7 0 2 5 5 7 6 9 7 6 6 8 7 8 6 7 8 7 2 8 3 7 5 7 9 9 8 7 7 7 7 8 8 10 10 10 11 11 10 10 10 11 8 9 12 8 8 7 4 4 3 6 4 4 9 8 9 10 10 11 11 11 11 11 11 11 11 11 11 11 11 10 11 11 11 11 11 11 11 11 10 9 13 14 12 12 12 11 9 10 12 11
8 5 6 8 1 5 4 7 4 7 7 9 5 9 8 7 4 6 6 7 7 3 5 4 3 2 7 5 7 8 8 9 9 7 6 7 7 8 9 9 10 10 11 11 11 10 10 11 9 9 13 12 7 8 8 8 7 7 5 8 9 9 11 10 10 10 11 11 11 12 12 11 11 10 8 8 10 11 11 11 10 11 11 11 11 11 10 14 14 13 11 11 10 9 9 11 11
7 2 6 7 4 7 6 5 8 9 6 8 9 10 8 2 3 3 2 5 6 5 6 1 4 7 6 7 7 7 9 10 8 7 7 7 7 7 7 8 9 9 10 11 10 10 10 10 10 9 9 8 10 9 9 7 8 10 7 6 10 7 10 10 10 10 10 10 10 10 11 12 11 12 12 11 9 5 8 11 10 10 11 12 12 11 11 12 13 12 11 9 8 8 9 8 10
5 5 6 6 7 8 7 7 3 8 6 8 9 8 9 6 1 4 4 6 8 5 5 5 3 5 6 7 7 11 12 11 8 7 7 6 5 5 5 5 6 7 8 9 9 9 10 10 9 9 9 8 6 5 7 8 9 11 10 8 7 5 9 11 10 10 10 10 9 9 10 11 11 13 14 13 13 10 3 9 10 10 11 12 12 13 12 11 13 13 8 7 6 6 7 7 7
4 7 6 7 8 8 5 8 6 8 10 10 11 11 10 9 4 3 1 4 11 9 4 3 3 1 6 7 9 13 12 10 9 8 7 5 4 3 2 2 2 5 4 8 8 8 9 10 10 7 9 8 7 5 5 7 9 10 9 8 6 7 8 11 10 10 9 10 11 10 10 10 9 10 12 11 14 11 9 6 9 10 11 12 12 13 13 12 12 12 9 6 6 6 5 6 7
6 8 8 8 5 9 5 6 6 7 8 12 11 9 8 10 8 6 5 5 6 7 5 6 4 4 5 7 5 11 11 11 9 9 6 4 2 2 2 3 3 4 4 5 8 8 8 8 9 9 7 8 7 5 4 5 8 9 9 9 9 7 9 12 12 11 12 11 10 9 8 6 9 9 9 9 10 11 12 10 10 10 11 13 12 12 12 12 12 11 11 8 6 6 6 5 6
8 7 6 7 6 4 4 3 2 4 8 10 8 5 7 9 9 7 6 8 8 8 7 7 7 7 6 8 10 11 10 10 9 7 6 4 2 2 2 3 4 4 4 4 5 7 7 6 8 8 8 6 7 7 4 5 7 6 7 9 7 8 7 11 10 12 10 11 11 10 10 9 8 7 8 9 8 10 10 12 13 12 11 13 13 11 11 11 10 9 10 10 7 6 6 4 5
6 6 7 4 3 5 3 1 4 4 7 8 9 7 3 8 5 7 7 7 7 7 7 7 6 9 9 10 11 11 10 10 8 7 6 4 3 2 2 3 3 3 4 5 4 5 6 5 6 7 7 6 5 5 5 3 4 4 5 6 6 6 5 6 8 9 9 9 9 9 7 7 8 6 8 11 12 8 7 11 14 15 12 13 13 10 11 10 11 10 10 10 9 7 5 4 4
6 7 6 2 5 5 5 3 3 3 2 8 7 7 6 6 3 7 4 6 6 5 3 1 5 8 10 11 11 11 10 10 9 7 5 5 4 2 3 3 5 5 4 2 4 5 5 5 4 5 6 5 4 4 5 4 3 3 4 4 5 4 3 4 5 8 8 8 8 7 8 7 7 6 8 7 6 9 10 8 11 10 10 10 15 10 10 10 10 9 8 9 7 6 5 4 3
2 8 7 4 4 2 7 5 5 4 2 4 7 8 6 5 5 5 6 8 3 2 6 3 2 8 12 12 11 11 11 10 9 8 6 5 5 4 4 4 4 2 2 3 5 5 5 4 5 4 4 5 3 3 4 5 3 3 1 2 2 4 3 3 4 4 6 7 6 8 7 6 6 6 6 6 5 7 9 8 8 10 10 12 12 9 9 10 10 9 8 8 6 6 4 4 4
7 6 1 1 2 2 6 7 4 1 5 5 7 4 6 7 5 4 5 6 6 4 3 4 3 7 10 11 11 10 11 10 9 7 7 6 5 5 5 4 3 3 4 5 4 4 4 5 4 4 4 3 4 3 2 3 4 5 6 5 2 2 2 2 4 4 4 5 6 7 6 7 7 6 6 4 6 6 8 9 10 11 12 10 10 9 9 9 9 8 8 7 6 6 6 5 5
9 2 6 4 1 5 5 7 3 1 2 2 2 3 6 6 8 5 6 2 3 4 2 4 5 8 10 11 11 10 10 10 8 6 6 6 6 6 6 5 4 3 5 5 5 5 4 6 5 4 4 3 3 4 3 4 5 6 6 5 6 7 5 3 3 3 3 4 5 5 7 7 7 7 7 7 7 7 8 11 11 10 9 9 9 9 9 9 8 6 7 7 7 6 6 6 6
9 3 6 6 3 7 5 5 3 2 3 2 2 6 3 2 3 4 5 3 4 4 5 6 8 9 9 9 10 9 9 8 8 7 5 6 8 7 6 5 4 4 6 5 5 6 6 5 5 5 4 3 3 3 3 4 5 6 6 5 5 5 4 5 4 4 4 4 5 7 7 7 7 9 8 8 4 8 9 9 9 9 10 9 9 9 8 8 7 6 6 7 6 6 5 6 6
7 2 8 8 6 6 5 5 3 2 2 1 5 3 3 1 0 8 4 4 4 4 6 7 8 9 10 10 10 9 9 8 8 8 7 7 8 8 6 5 5 5 5 5 5 6 5 5 6 5 5 4 3 2 3 4 4 4 4 4 4 3 4 4 7 6 5 5 4 6 7 7 5 5 8 9 9 6 9 10 10 9 10 9 7 10 8 8 7 7 7 7 6 6 6 5 5
6 6 7 7 6 6 4 3 4 2 2 1 5 5 5 3 5 6 6 5 5 7 7 8 9 9 9 9 9 8 8 9 9 7 6 6 7 7 6 5 4 6 5 5 5 5 4 4 5 5 6 5 5 5 4 4 4 4 4 3 3 3 2 2 2 3 4 5 4 5 7 7 7 6 7 9 8 10 9 10 10 9 9 8 9 9 7 7 7 7 7 6 6 6 6 5 5
4 8 8 6 6 4 5 4 3 4 5 1 4 4 2 4 6 1 7 6 6 8 8 9 9 9 9 9 9 8 7 7 7 7 9 8 7 7 7 6 6 6 5 4 5 5 5 5 6 6 5 5 5 6 5 5 5 5 4 3 3 4 1 1 1 1 1 4 5 6 6 7 7 7 7 5 9 9 8 9 9 10 9 9 9 8 7 7 7 7 7 6 5 5 5 6 5
7 8 9 7 6 7 7 6 3 5 3 3 2 4 9 8 10 7 6 5 6 7 8 9 8 8 8 9 8 8 8 8 7 7 8 7 6 7 7 6 7 6 5 5 6 5 6 4 4 5 5 5 5 6 5 4 5 5 5 4 4 3 1 2 2 2 0 1 2 4 5 6 6 7 5 6 9 8 6 3 7 10 10 8 8 8 8 7 7 6 5 5 6 6 5 4 6
6 6 5 7 7 9 9 5 3 6 4 1 4 8 9 11 7 8 5 5 6 7 8 8 7 6 7 8 8 8 7 8 8 8 7 6 7 8 7 6 6 5 6 6 5 6 5 3 3 2 3 5 5 5 5 5 5 4 4 4 4 4 3 2 1 2 3 1 1 2 4 4 5 6 6 6 7 7 7 6 8 9 9 9 8 7 7 7 7 7 6 6 6 6 6 7 7
7 5 6 7 6 6 9 5 5 8 5 4 6 9 3 10 10 6 4 5 7 8 8 8 7 7 7 7 8 8 9 9 9 8 6 5 6 7 7 6 6 4 4 5 5 6 5 4 2 2 2 3 4 5 5 5 4 4 4 4 4 5 3 2 2 2 2 2 2 1 2 3 4 5 6 5 4 5 3 4 6 9 9 8 7 7 7 7 7 7 6 7 7 7 7 7 7
4 6 8 7 7 5 8 6 7 9 7 5 8 7 5 9 9 6 5 7 8 8 8 8 7 7 7 7 9 9 9 10 9 8 8 7 7 7 8 7 6 5 4 5 5 5 5 4 2 2 2 2 3 3 3 4 4 3 3 3 3 4 3 3 2 2 3 2 2 2 2 1 2 3 5 6 6 7 5 5 8 8 7 8 8 8 8 8 8 8 8 8 7 8 8 8 7
7 7 3 6 6 4 5 7 5 2 4 9 11 6 1 7 9 7 5 9 9 8 8 8 8 8 8 8 8 9 9 10 10 11 10 8 8 7 8 7 6 6 5 5 5 5 4 5 3 2 2 2 2 2 2 2 2 4 4 3 2 2 3 2 2 2 2 2 3 2 2 2 3 3 4 5 6 5 6 7 5 7 6 7 9 7 8 7 8 9 8 8 8 8 8 8 7
7 7 6 1 6 3 4 8 6 6 6 9 12 10 6 1 10 9 7 9 10 8 7 7 7 7 8 8 8 9 10 10 11 12 12 11 9 9 9 7 6 6 5 5 4 4 4 5 4 3 2 2 2 3 2 2 2 2 2 4 3 3 2 2 3 2 1 2 2 3 3 2 3 4 3 3 3 5 5 5 4 5 5 8 7 7 7 9 9 8 9 9 8 7 8 7 7
5 5 6 6 7 6 3 3 8 6 9 9 10 12 11 5 8 10 10 9 9 8 7 8 9 9 9 9 9 10 10 11 12 12 13 12 11 10 9 9 6 6 5 5 5 4 3 4 4 4 2 1 1 2 3 2 1 1 2 2 3 3 4 2 3 2 2 2 1 3 3 3 2 2 3 2 2 2 3 2 2 4 3 5 5 6 6 9 9 9 11 8 8 8 7 7 7
1 4 3 2 4 7 8 6 5 1 7 10 11 10 12 11 10 10 10 9 8 9 9 8 8 8 9 10 10 11 11 12 11 12 12 11 11 11 9 9 7 6 5 5 5 5 5 5 4 4 3 2 1 1 1 3 5 5 6 6 5 5 4 5 3 3 3 2 3 3 2 3 3 2 3 3 2 2 3 3 3 2 1 3 6 6 7 8 12 13 11 11 11 8 7 8 8
3 1 4 4 5 5 3 2 6 1 5 10 11 11 12 11 9 10 13 11 10 11 11 10 10 10 11 12 12 12 13 13 11 10 11 12 12 11 9 9 8 7 6 6 6 6 6 5 5 5 4 3 0 1 2 3 5 6 5 6 6 6 5 4 3 3 3 3 4 4 3 2 3 3 3 3 4 4 4 3 4 5 4 4 7 7 10 14 13 12 10 10 11 10 7 10 10
4 3 5 5 5 7 4 3 4 3 6 8 7 10 12 13 12 11 9 10 13 13 13 13 13 14 13 14 15 14 13 10 7 8 10 10 11 11 9 9 9 9 8 7 8 8 6 6 5 4 4 3 2 1 1 1 3 4 4 5 6 5 6 5 5 4 3 3 3 4 3 3 3 3 2 3 3 5 5 5 5 5 5 6 7 8 10 12 13 13 11 11 11 11 10 13 10
4 6 2 5 5 0 4 3 4 2 4 9 6 9 12 13 12 12 14 13 12 13 13 11 11 12 10 11 13 13 12 8 9 9 9 10 11 13 11 9 10 10 9 8 8 8 7 6 5 4 4 2 2 1 1 2 1 1 2 4 4 5 3 4 5 4 3 3 2 3 3 3 4 3 3 3 4 4 5 5 6 5 6 6 6 7 9 13 10 9 10 10 11 9 8 11 11
5 5 6 6 5 4 4 6 4 3 5 6 5 8 10 12 13 14 14 14 14 13 9 10 11 12 13 12 10 9 9 8 9 9 10 9 10 11 11 10 10 9 8 7 7 8 6 6 5 5 5 3 2 2 1 1 1 1 1 1 2 3 4 3 3 2 1 4 5 4 5 5 6 5 4 4 5 5 5 6 6 6 7 8 8 7 6 8 9 12 11 9 7 7 6 11 14
6 6 6 5 3 4 7 5 3 3 6 6 10 11 11 12 11 11 11 11 10 10 11 12 12 12 12 10 8 8 8 7 7 8 9 9 10 12 13 12 10 10 9 9 8 8 5 7 6 6 4 4 2 2 1 1 1 2 1 2 2 0 1 3 3 4 5 5 5 5 6 6 6 5 6 6 5 6 5 5 6 6 7 8 8 9 10 10 9 8 11 11 11 10 10 6 11
5 7 6 4 2 3 4 2 5 6 6 6 5 7 5 6 6 6 6 7 10 11 12 12 12 13 12 12 12 10 9 6 6 8 9 10 11 12 13 12 11 10 10 9 8 8 7 7 7 6 4 3 2 2 1 1 1 2 3 4 4 4 4 4 5 6 6 6 6 6 7 6 6 6 6 6 6 6 7 6 6 6 7 7 8 9 9 9 10 12 13 12 13 12 9 10 10
5 2 6 5 4 4 4 5 5 6 3 8 4 7 3 4 6 8 7 5 7 8 10 11 11 11 11 12 11 9 9 7 7 6 8 10 11 11 12 12 12 12 10 8 8 8 8 8 8 7 5 4 3 1 0 1 1 2 3 3 3 3 3 3 3 4 4 5 6 7 6 6 6 6 6 6 6 6 7 7 7 7 7 7 7 9 9 10 8 8 9 12 11 9 10 7 8
4 8 4 5 6 6 5 5 5 5 4 6 7 6 7 8 6 6 5 6 7 9 10 11 10 10 11 11 11 10 9 8 7 8 8 9 10 11 12 13 12 11 9 8 8 7 9 9 9 8 6 5 4 2 2 0 1 2 2 2 2 2 3 2 2 3 3 4 6 7 6 6 6 6 6 6 7 7 7 7 8 8 8 8 7 7 9 9 9 8 8 9 8 9 10 11 10
4 3 4 6 6 4 5 5 5 3 5 7 8 7 6 7 3 5 7 9 9 10 10 10 10 10 10 10 10 10 10 8 9 8 9 9 10 10 10 11 10 9 9 8 8 8 8 8 9 8 7 6 5 4 3 2 1 1 1 1 2 2 1 1 1 1 3 4 6 6 7 7 6 5 6 6 7 7 7 7 7 8 9 8 7 8 8 9 12 12 10 11 10 9 9 11 10
6 6 4 3 3 4 6 6 5 3 5 8 5 6 7 6 4 7 9 7 8 9 9 9 10 10 10 10 10 10 10 9 9 9 9 9 9 9 7 7 8 7 6 7 7 7 8 8 9 10 9 7 6 6 4 4 2 1 1 1 1 1 2 1 1 2 2 3 4 6 6 6 6 6 6 6 7 7 8 7 7 8 8 9 8 9 9 10 10 10 12 12 13 14 10 8 11
7 6 6 6 6 6 6 6 5 5 8 9 5 7 6 7 4 4 4 5 5 7 7 8 8 8 9 9 10 11 11 11 10 10 9 8 7 6 7 8 7 7 6 7 7 8 8 9 10 11 10 7 7 7 6 5 4 2 2 2 2 1 1 1 1 1 2 3 4 5 6 6 6 6 6 6 6 7 7 8 7 7 7 8 9 10 10 10 9 10 11 12 13 14 11 11 10
7 6 7 6 6 6 7 6 5 7 8 4 7 5 7 7 4 4 3 3 4 6 7 9 10 10 10 10 10 11 11 11 12 11 11 10 8 7 7 8 8 8 8 8 8 8 9 10 10 12 11 10 8 7 7 6 5 4 3 3 2 1 0 1 2 2 2 3 3 4 4 5 5 6 6 6 6 6 6 7 8 8 8 8 9 9 9 9 9 10 10 10 11 14 13 12 11
9 8 8 8 8 6 7 7 8 8 7 5 5 7 6 10 8 7 2 6 6 6 6 5 6 8 9 11 12 11 11 12 11 11 11 10 9 8 8 9 8 9 9 10 10 9 10 10 12 12 12 11 9 8 7 7 5 4 3 3 2 2 1 2 2 2 2 3 3 3 4 5 5 5 5 6 6 8 7 7 7 7 7 8 8 9 10 11 11 10 10 12 13 12 13 14 14
10 10 9 9 9 9 8 8 8 7 4 7 5 6 7 7 11 12 11 8 8 9 9 8 8 9 9 9 10 11 11 11 11 12 12 11 10 10 10 10 10 9 10 10 10 10 9 9 11 12 12 11 9 8 8 7 6 5 4 3 2 2 2 2 2 2 3 3 3 4 4 4 5 5 6 7 7 8 8 8 8 9 9 10 10 10 11 12 12 11 11 12 13 13 12 15 15
12 11 10 10 10 9 8 8 10 10 3 5 7 4 3 6 2 7 5 5 8 9 10 8 8 9 10 11 10 8 11 12 12 12 12 11 11 11 9 8 8 8 9 9 9 9 9 10 11 13 12 12 10 9 8 7 6 6 5 4 3 2 2 3 3 2 3 3 3 4 5 5 5 5 5 6 7 8 9 9 10 10 10 10 11 11 11 11 12 12 11 12 11 11 12 13 15
9 9 9 11 12 7 13 5 8 8 1 6 8 5 5 7 4 4 3 6 8 8 10 10 10 10 11 11 12 12 12 12 12 12 12 12 11 11 9 8 7 7 7 7 8 8 9 9 11 13 13 12 11 10 8 7 6 5 5 5 4 3 3 3 3 3 3 4 4 5 5 6 6 6 6 6 8 8 9 10 10 10 11 10 11 11 11 11 12 12 12 12 13 10 11 14 14
2 8 11 13 10 11 11 4 1 1 7 13 6 7 10 9 11 13 12 10 11 11 11 12 11 11 10 10 11 13 13 13 13 13 12 13 12 12 10 10 9 7 6 7 8 8 8 8 9 11 12 11 11 10 8 7 6 6 6 5 4 4 4 4 4 4 5 5 5 5 5 6 6 7 7 6 8 8 9 10 10 10 10 10 11 12 12 12 12 12 12 14 14 13 12 13 12
4 9 9 3 4 7 8 12 4 6 12 9 10 10 9 9 9 8 15 15 13 14 14 13 12 11 11 10 11 12 14 13 14 14 13 13 13 13 12 11 10 7 6 6 7 7 6 7 9 11 12 12 10 9 8 7 7 6 5 5 5 5 4 5 5 5 5 5 5 5 6 6 6 6 6 7 8 10 10 11 11 12 11 11 12 12 12 13 13 12 13 14 15 15 14 12 12
11 10 4 7 8 11 10 7 12 13 12 10 9 12 12 12 10 6 11 13 13 14 14 14 13 12 11 11 13 13 13 13 12 13 13 13 12 12 11 11 9 5 5 5 6 6 6 6 7 9 11 11 10 8 7 6 6 4 4 5 5 5 5 5 5 5 5 6 7 6 7 7 7 8 8 9 9 10 11 11 11 12 11 12 12 12 12 12 12 11 12 12 14 15 15 15 12
11 8 10 11 11 12 12 10 10 11 14 14 13 16 12 11 11 12 11 11 11 12 13 13 13 13 11 11 12 13 13 12 12 12 12 12 13 13 13 11 8 7 6 6 6 5 6 6 8 8 9 10 10 9 8 7 6 5 5 4 4 4 4 5 5 5 5 6 7 7 8 9 10 9 10 11 10 11 12 12 11 12 12 12 12 12 12 12 13 12 12 12 13 15 17 17 16
8 8 10 11 10 9 12 10 14 13 14 14 14 15 13 11 8 11 10 10 11 12 12 12 11 12 13 12 12 11 12 12 12 12 12 13 13 12 11 7 7 6 6 5 5 6 6 7 8 10 11 11 10 9 8 7 6 6 5 5 4 4 5 6 6 6 7 7 8 9 9 10 10 11 11 12 12 12 12 12 13 13 13 13 13 13 11 12 12 13 13 14 14 15 17 16 17
8 9 10 10 12 12 13 17 13 15 15 13 13 17 12 10 4 9 10 8 10 12 12 12 12 12 12 12 13 12 11 12 13 13 13 12 12 12 8 5 5 5 5 6 6 6 7 8 8 9 10 10 10 9 8 7 6 5 5 4 4 4 5 6 6 7 8 9 10 10 10 10 11 11 12 13 13 12 11 12 13 14 14 14 15 15 15 13 13 13 14 12 14 16 16 17 17
Wind_Direction
265 254 292 259 249 257 232 206 230 171 229 234 229 206 122 159 14 170 151 147 163 63 58 119 92 78 359 70 88 78 44 32 16 311 48 95 164 62 19 4 354 39 71 101 122 141 148 198 278 116 103 131 134 129 125 122 119 112 114 118 114 111 123 134 135 135 135 135 135 136 132 129 120 114 113 114 114 121 137 140 137 131 122 125 128 127 125 126 126 125 128 130 128 129 128 128 126
259 276 235 238 226 221 189 219 276 188 218 243 226 213 115 132 190 178 155 133 67 107 114 101 93 76 53 87 100 101 63 50 41 79 93 70 176 59 13 19 354 28 94 97 115 139 159 170 223 134 111 126 141 133 129 124 120 116 118 116 111 117 123 120 152 137 138 137 136 134 125 118 118 114 111 109 116 142 136 124 133 123 124 128 129 131 133 130 130 132 128 129 130 131 131 129 127
269 247 192 212 211 245 77 218 244 219 221 230 166 183 117 162 174 122 96 97 102 110 118 102 92 53 83 139 85 347 89 54 74 75 70 100 199 34 28 9 30 60 59 118 137 160 168 154 34 172 119 123 137 133 133 131 125 122 118 120 122 129 132 128 134 136 138 137 136 131 125 123 119 121 115 119 128 126 122 125 123 123 124 122 128 136 136 132 131 129 128 129 130 131 128 131 128
268 260 244 196 184 231 205 201 255 253 234 248 130 141 172 168 120 105 98 95 103 122 139 138 106 25 301 123 79 86 92 89 38 32 92 68 43 38 30 31 65 61 92 85 97 149 171 135 156 150 142 110 114 145 141 133 126 124 119 117 130 137 139 138 144 140 133 132 130 128 125 118 115 111 113 117 116 120 119 121 124 128 134 137 138 138 136 132 130 129 127 128 129 127 124 133 127
245 202 252 243 249 196 224 220 254 246 242 203 228 139 164 167 124 122 108 96 113 144 176 118 115 58 54 62 315 13 89 93 79 61 90 72 42 32 45 43 76 83 75 73 100 177 121 135 115 134 150 141 140 164 148 128 122 117 112 109 115 127 133 143 144 137 131 127 126 123 124 122 117 113 111 113 114 119 118 117 120 125 130 133 135 137 135 132 130 130 126 123 128 128 128 132 128
217 204 196 251 254 6 259 211 218 226 329 348 170 162 158 136 140 128 119 111 105 100 57 183 73 154 104 48 25 74 275 147 104 65 30 63 46 34 48 75 83 87 80 86 87 146 129 127 125 109 151 149 149 164 153 127 118 115 113 113 111 112 120 126 129 129 124 126 123 123 125 122 117 108 108 110 118 118 120 121 123 125 125 129 132 132 133 125 119 119 123 129 130 129 130 132 130
182 199 185 207 208 222 238 225 220 219 91 341 31 120 169 142 138 138 133 125 102 98 304 99 134 131 128 122 89 56 51 64 115 76 28 67 57 39 53 72 81 81 79 72 80 100 117 137 123 112 152 143 135 145 148 131 124 121 126 124 120 120 119 121 123 125 124 121 117 120 125 124 120 119 120 123 130 129 127 125 122 122 121 128 131 129 119 116 120 119 119 126 130 130 130 131 131
264 255 168 216 182 213 226 233 249 216 110 19 44 107 149 146 145 153 150 169 148 164 110 102 206 303 74 209 99 96 86 64 83 90 93 71 61 55 63 74 78 75 77 81 74 86 106 103 78 51 28 15 8 17 354 137 132 128 128 121 120 119 123 122 123 123 125 123 123 125 128 131 128 130 137 134 130 125 128 125 122 120 121 124 123 126 123 123 124 122 124 128 130 131 133 132 132
191 245 137 256 222 202 235 220 214 58 101 151 143 26 103 147 161 161 154 80 118 113 128 115 82 242 125 127 101 119 103 110 99 88 73 66 67 60 58 58 62 66 67 74 86 92 94 71 59 62 67 15 40 22 335 305 138 131 130 121 119 122 122 122 123 125 123 125 130 134 140 136 137 140 142 134 124 126 126 125 125 122 123 124 120 124 130 130 124 123 128 131 132 137 137 135 131
188 247 176 244 231 210 222 199 223 172 135 104 128 158 163 155 161 204 154 154 111 126 92 16 305 93 133 113 127 148 111 132 107 95 82 75 72 64 61 53 60 66 64 63 67 87 91 82 64 60 90 112 87 25 359 347 326 124 128 126 125 124 120 120 122 125 127 130 133 138 140 140 139 139 144 138 131 132 125 127 126 126 126 128 126 128 135 134 127 128 133 135 136 139 136 133 129
199 208 298 233 219 226 210 190 192 135 165 143 146 157 175 166 177 172 180 103 144 124 126 261 144 123 142 112 86 89 124 137 122 99 93 81 76 72 70 64 60 54 60 59 60 65 89 97 100 105 105 39 8 28 67 130 31 66 132 125 122 123 124 123 125 126 131 136 141 138 138 136 138 138 140 138 136 133 129 126 127 128 127 131 130 129 137 134 133 131 133 136 135 138 131 130 131
220 206 186 231 221 228 206 212 180 134 138 171 139 160 161 175 182 177 164 157 151 142 129 263 106 165 124 131 124 139 128 114 112 111 104 97 86 83 76 73 67 67 61 63 66 62 62 111 101 85 101 69 338 27 51 94 137 45 156 120 121 121 124 129 131 134 134 135 132 132 132 134 138 141 146 140 140 136 129 126 127 127 129 132 129 125 133 139 137 125 117 121 133 135 129 123 123
244 196 206 236 233 224 74 234 166 153 169 176 139 147 157 175 186 174 172 136 151 149 123 32 115 232 131 112 113 140 134 118 114 116 106 88 90 93 89 75 67 67 67 62 66 68 67 38 112 144 138 138 156 119 154 172 158 115 119 137 132 133 135 141 141 140 139 138 139 140 144 144 147 152 145 142 142 136 133 128 130 128 130 130 127 126 127 134 138 128 119 123 123 121 124 126 126
243 209 224 231 65 257 217 221 146 195 189 119 126 143 166 188 194 164 153 153 152 117 75 128 152 274 107 125 147 157 129 127 117 108 99 89 88 84 79 81 74 66 61 60 59 63 73 92 88 118 145 153 154 167 182 179 159 121 113 141 139 151 144 146 145 144 146 145 149 153 154 149 152 141 114 126 141 143 139 136 131 134 136 132 132 134 132 132 146 136 126 126 130 130 134 140 140
247 202 254 258 228 225 216 231 204 210 140 144 127 156 158 69 160 165 229 160 102 81 108 16 9 255 119 217 146 158 132 129 115 106 100 101 88 85 84 84 79 67 58 55 56 54 59 68 76 81 92 107 132 155 176 173 133 130 137 142 150 160 154 150 147 152 151 153 155 160 153 149 151 142 140 119 129 58 149 137 135 141 139 141 140 141 147 141 146 141 137 134 139 137 144 142 154
249 212 233 235 229 219 175 229 231 221 133 146 142 156 154 132 119 197 78 345 107 121 186 135 231 354 67 38 105 125 126 127 123 122 124 114 110 101 103 86 81 72 67 60 51 51 55 61 61 66 75 75 87 108 157 164 139 143 148 157 162 181 166 154 155 160 163 161 160 160 153 155 155 149 139 143 129 140 161 158 143 145 144 144 147 151 154 154 150 147 136 133 129 122 122 127 145
230 244 216 230 228 214 153 213 177 222 115 126 148 166 159 149 132 76 146 155 144 141 172 88 75 265 53 70 97 115 127 125 137 146 148 149 167 139 107 95 74 89 79 66 57 50 51 53 58 61 71 80 74 80 117 153 135 144 151 160 181 186 180 155 163 165 168 167 170 165 158 167 178 168 159 170 138 160 150 160 149 155 150 146 149 151 153 153 149 138 122 120 113 103 106 119 138
202 212 228 213 238 210 139 218 174 48 145 137 160 174 167 154 160 132 164 134 125 141 146 137 136 82 74 113 108 127 127 140 155 171 167 162 191 137 89 58 17 42 35 59 55 49 51 44 53 60 55 68 73 72 100 147 153 178 167 166 181 181 183 165 173 179 183 178 171 178 164 182 187 170 160 170 161 169 157 156 159 161 161 150 149 149 139 138 138 131 127 124 117 119 134 177 158
212 215 233 232 204 58 62 29 69 220 141 151 145 169 197 146 158 157 195 152 159 164 148 164 147 126 120 138 139 135 141 149 167 182 172 180 152 69 14 43 34 22 31 23 59 49 46 52 45 50 59 50 74 77 82 127 151 152 161 168 169 184 174 192 182 186 197 187 178 193 170 194 192 165 157 157 183 160 152 155 160 157 176 154 151 146 140 134 130 126 125 129 125 133 186 182 176
220 249 210 245 110 86 71 154 114 359 127 144 153 153 188 119 167 146 223 159 182 198 157 174 182 154 145 142 150 147 154 159 169 173 172 154 110 97 78 36 31 38 25 18 42 46 42 45 52 54 54 49 51 78 99 110 134 146 151 161 171 164 174 206 204 186 196 210 187 190 196 183 180 179 160 168 150 167 158 176 164 159 173 153 140 149 134 125 129 130 131 134 149 184 197 177 185
146 236 238 162 148 175 123 146 102 118 235 153 151 141 153 150 139 196 168 192 200 228 162 163 168 156 147 150 152 157 160 165 168 170 161 134 112 101 75 50 32 28 23 4 47 56 45 50 45 53 55 57 50 68 83 88 133 164 157 146 162 167 187 197 221 205 198 210 206 199 201 193 186 182 167 165 190 158 174 182 176 172 177 158 162 173 174 154 165 171 155 172 191 188 192 175 218
141 224 24 38 142 210 112 108 94 100 35 158 142 184 153 127 177 205 207 233 227 170 138 134 133 148 148 155 159 163 165 171 173 170 158 139 133 112 99 82 80 40 30 34 36 53 37 43 55 52 52 56 53 64 73 89 102 103 89 138 157 161 207 210 220 216 203 215 217 209 207 197 201 203 173 183 191 160 163 181 172 175 179 180 188 182 183 176 189 176 182 186 188 195 180 199 202
227 185 244 22 8 77 118 120 95 203 159 171 180 102 124 185 172 209 234 263 58 34 50 127 127 140 147 152 157 169 170 173 177 172 157 147 140 117 102 83 73 60 61 51 50 54 58 41 44 48 50 58 40 52 82 96 86 65 45 23 30 38 330 251 225 221 221 221 214 219 211 208 206 206 180 172 198 176 167 172 193 184 181 187 187 192 186 183 195 183 182 187 188 191 193 195 209
263 153 163 142 66 118 110 105 122 69 216 126 39 131 212 183 199 151 229 164 63 79 108 134 129 125 139 154 168 171 175 175 172 159 153 134 129 115 110 104 75 80 73 74 67 65 56 49 43 38 49 26 37 22 48 69 70 71 55 45 30 14 355 282 247 251 261 238 232 223 222 218 208 207 195 190 192 189 182 171 186 185 182 188 190 198 190 193 195 195 186 185 191 198 202 211 214
220 205 169 126 130 117 116 123 127 117 97 107 172 209 169 209 345 180 214 141 123 122 150 152 147 147 151 165 170 173 176 166 162 143 129 117 122 121 121 104 111 98 89 77 78 72 62 64 51 47 32 33 43 359 26 48 67 77 83 59 43 24 27 352 334 292 261 255 227 236 223 228 220 210 206 182 196 198 186 182 184 190 188 196 192 203 201 194 199 198 190 194 196 202 209 209 222
226 153 144 144 139 129 130 129 121 116 136 195 218 204 148 157 134 243 150 142 128 145 170 162 159 161 164 170 173 175 172 166 159 154 146 129 127 131 133 128 133 129 102 101 90 73 57 62 56 56 42 20 33 20 16 29 43 55 72 86 82 53 18 6 0 343 299 252 240 235 233 231 240 261 214 187 183 217 192 187 190 191 195 198 192 209 201 197 198 196 196 204 201 206 213 204 215
156 148 154 144 130 149 148 181 132 145 97 183 240 189 172 153 216 203 145 136 157 177 172 167 168 174 170 169 172 178 174 170 171 154 153 144 140 143 148 144 150 118 125 103 85 80 82 68 70 54 58 27 15 42 24 30 26 39 31 47 101 91 60 70 48 296 319 331 303 250 242 240 241 211 236 216 173 202 199 191 192 197 197 195 201 206 200 200 199 198 203 204 217 217 216 214 204
161 146 140 132 151 163 149 163 159 194 162 212 251 177 174 188 219 185 116 127 175 183 171 172 181 174 171 171 174 173 182 173 169 169 172 166 162 153 154 150 140 131 135 114 90 94 89 64 61 56 50 40 27 27 37 30 19 20 29 15 32 38 35 44 199 188 338 311 327 333 275 257 240 245 235 261 220 203 200 201 200 202 203 196 204 205 198 205 205 205 206 208 220 224 219 225 212
150 177 191 164 170 192 181 200 169 222 123 198 244 228 215 197 214 118 101 132 170 184 170 175 181 172 177 168 177 180 185 175 178 186 187 182 165 152 155 146 143 145 112 105 109 121 109 98 74 51 47 46 37 34 24 30 20 11 13 15 22 11 11 24 324 325 357 202 310 311 326 280 261 247 228 207 248 211 200 226 218 208 207 200 199 207 205 207 214 204 200 205 208 206 222 218 229
156 192 245 168 204 220 172 178 189 217 95 147 209 238 204 194 178 134 130 155 169 171 178 179 168 187 177 180 188 190 186 187 193 195 186 178 162 159 159 157 154 165 127 121 136 130 113 114 100 76 37 47 31 37 20 17 20 8 2 10 17 354 12 354 10 338 308 296 245 281 302 297 284 284 260 226 222 234 195 198 228 222 210 198 199 198 203 207 214 208 205 200 193 200 207 216 221
204 144 231 241 199 207 134 197 164 215 112 192 227 258 188 167 158 139 158 183 178 171 178 181 175 186 189 193 203 202 194 205 196 191 187 167 164 168 174 164 173 185 132 131 148 132 133 121 130 112 93 47 37 30 20 14 19 4 2 12 2 359 346 350 17 341 318 303 297 264 255 293 346 319 298 267 246 249 257 207 231 230 211 200 198 199 206 204 208 214 209 208 198 217 226 214 223
182 188 210 217 240 122 118 136 187 220 143 196 214 240 250 161 155 148 172 189 196 187 182 180 187 193 200 204 211 213 209 199 198 192 191 184 178 177 185 185 182 182 179 153 152 143 144 134 130 109 100 78 50 36 21 10 3 1 359 20 2 360 350 350 12 18 334 316 297 285 270 310 318 304 327 315 260 239 230 231 219 226 224 215 205 202 208 203 204 214 218 221 221 217 218 221 214
199 238 212 202 216 175 166 140 168 252 152 178 219 260 213 161 148 142 159 183 191 208 185 192 192 200 212 218 216 221 216 204 202 201 196 196 190 188 190 196 192 190 185 182 167 159 158 140 143 117 84 54 41 27 18 13 359 350 351 7 8 357 2 2 357 353 328 331 343 310 346 297 265 291 319 344 333 285 255 244 248 235 223 225 214 207 208 216 211 212 214 219 224 235 225 223 208
203 205 245 227 235 192 222 115 161 169 225 195 211 245 250 173 158 152 160 184 190 214 206 200 208 217 221 229 232 222 223 216 210 208 199 199 197 190 194 197 198 190 190 194 190 179 169 153 145 119 95 34 360 350 355 343 16 350 356 357 9 0 12 1 2 336 336 355 336 357 347 315 282 273 264 296 320 348 338 352 325 331 294 241 231 220 215 224 225 229 220 214 218 228 242 230 223
208 183 227 204 223 244 303 214 119 208 200 240 207 230 245 189 183 173 173 181 201 215 226 227 223 223 229 236 239 241 233 223 221 214 203 195 196 189 195 203 194 191 190 196 191 185 173 150 144 136 129 62 339 336 329 314 331 350 20 335 8 2 1 33 0 349 12 341 35 3 333 318 279 258 255 241 254 312 340 344 342 303 332 319 256 229 239 224 219 222 230 213 214 230 249 250 235
266 226 252 279 234 196 227 103 109 253 210 216 226 229 225 231 197 196 181 187 209 227 238 246 246 248 248 248 248 247 244 236 225 218 206 195 193 192 195 201 199 189 192 196 198 186 182 159 169 150 136 118 263 263 314 0 12 16 12 6 12 16 353 8 12 18 4 4 11 339 336 305 297 274 262 246 210 206 233 254 269 268 340 309 298 261 228 234 214 216 222 218 211 219 238 242 229
74 278 252 252 270 263 188 147 97 197 259 235 235 231 243 241 228 202 201 194 218 239 243 238 238 245 248 250 249 247 244 242 228 212 198 187 187 187 191 200 199 187 187 196 206 204 190 190 165 158 135 123 2 10 43 13 20 16 10 7 359 3 359 355 6 27 8 14 355 348 339 331 327 300 272 258 242 228 219 221 230 242 212 215 242 248 236 228 218 213 210 220 218 212 224 239 224
222 219 254 233 205 258 76 105 150 116 238 249 220 253 246 247 246 242 222 198 228 231 237 238 241 245 250 253 253 249 246 238 206 175 183 186 189 184 183 194 199 201 193 195 207 211 200 183 194 149 142 118 114 49 23 95 32 23 356 10 351 356 354 356 354 359 5 352 358 353 348 331 328 302 274 263 257 247 242 228 219 221 206 211 226 242 246 238 225 209 206 206 214 207 211 222 220
204 261 227 262 229 289 127 166 182 175 233 247 198 243 249 247 241 233 238 235 233 235 240 248 250 255 254 254 250 246 242 226 184 194 186 189 191 186 187 195 204 213 205 196 202 206 193 188 184 160 128 125 112 88 331 67 74 62 5 8 354 355 1 1 339 340 333 337 348 349 338 344 326 301 285 269 258 250 248 246 242 232 226 223 226 227 240 230 220 212 200 208 210 216 215 230 228
231 220 230 241 80 256 177 163 165 198 249 285 297 285 271 259 254 251 242 240 240 241 239 244 248 254 251 246 239 239 240 223 208 190 184 185 188 188 189 194 201 198 195 192 192 198 196 202 176 155 132 124 114 83 4 72 104 129 162 11 8 358 352 341 320 292 340 343 338 346 332 332 320 303 292 281 263 257 255 256 249 238 226 223 229 229 255 254 230 202 195 199 199 189 213 232 220
195 267 271 274 194 219 295 102 174 172 215 257 269 266 260 240 237 236 229 236 239 222 226 233 233 238 242 248 256 248 248 234 217 197 187 185 185 186 189 196 194 195 197 204 193 195 191 196 172 154 138 124 108 78 11 311 163 171 143 176 191 316 356 358 355 358 352 342 325 334 335 324 315 310 310 299 283 271 261 263 260 248 240 228 221 220 221 224 217 202 203 198 196 204 196 236 229
207 200 246 283 155 243 195 194 228 224 202 188 279 272 241 136 195 221 150 195 212 214 221 221 226 225 223 229 235 236 232 230 224 199 192 185 183 184 191 194 195 201 203 200 193 190 189 188 166 156 148 143 129 120 42 309 35 29 19 15 9 9 6 12 3 356 340 335 333 330 319 325 319 310 303 300 299 291 281 266 262 267 248 239 234 230 231 228 222 209 202 204 196 200 195 191 231
266 141 181 207 223 218 197 212 231 240 250 135 247 277 294 181 237 200 197 203 198 190 210 221 222 217 217 223 227 224 223 206 198 194 190 185 185 190 188 192 198 203 202 185 181 183 186 179 168 163 164 155 136 132 35 272 62 55 45 31 30 10 8 24 5 338 328 330 323 323 320 317 315 308 301 297 294 293 289 282 274 262 265 268 252 239 236 239 236 224 211 201 204 197 198 208 235
248 108 153 172 202 206 211 242 245 291 348 263 216 245 276 279 250 157 200 208 215 204 205 218 214 209 214 218 218 214 210 199 187 189 186 185 187 191 190 195 199 201 186 174 179 183 186 179 170 165 167 163 153 163 163 255 2 71 33 54 34 30 17 3 348 335 333 316 320 317 314 310 310 309 307 304 300 289 285 288 284 276 268 262 261 255 243 239 240 227 213 214 209 199 190 198 212
80 137 141 197 205 226 226 234 253 296 317 278 182 208 241 253 181 159 184 212 213 221 210 204 207 200 202 206 207 203 203 194 197 187 187 186 190 193 198 199 196 186 176 183 185 184 181 178 174 170 169 170 167 169 184 160 132 54 24 45 40 30 18 10 348 335 332 334 313 315 311 309 302 299 299 300 302 298 290 280 283 279 271 263 264 260 260 257 246 239 219 209 212 212 202 198 207
116 123 130 144 200 226 231 252 253 217 263 273 198 183 272 280 195 181 175 227 234 230 216 207 198 202 205 204 206 209 202 198 199 196 192 189 191 195 192 174 170 174 180 184 183 179 180 177 180 177 178 181 169 175 180 168 165 182 137 75 70 23 358 346 342 360 318 327 313 311 312 308 307 305 300 301 301 306 304 295 283 278 273 271 270 268 267 257 260 255 238 226 213 212 211 204 207
128 160 188 188 202 210 209 253 267 271 246 248 201 184 251 282 267 250 179 213 243 232 212 198 194 205 213 213 214 209 208 202 204 198 194 191 180 171 162 182 184 180 179 188 189 188 183 183 184 186 186 183 174 177 180 173 176 184 150 122 98 72 1 320 314 325 330 315 316 313 308 309 308 302 300 296 295 296 298 296 287 277 277 273 267 267 260 259 258 253 249 237 229 221 207 204 207
181 201 214 218 212 208 236 228 218 247 249 189 148 185 207 247 226 148 206 183 235 251 205 196 204 208 215 215 218 222 220 210 205 202 199 194 181 183 185 197 197 193 190 195 195 190 190 189 189 192 190 185 175 176 176 177 179 171 155 142 124 111 277 271 310 309 301 299 289 291 297 301 300 299 296 293 292 294 295 293 297 293 277 269 266 260 262 264 262 261 252 242 231 225 216 206 205
215 219 219 235 235 216 235 227 219 227 254 129 172 163 211 232 268 303 211 207 223 225 241 240 245 252 243 224 222 221 221 222 213 205 202 198 200 199 202 211 200 199 202 201 199 196 195 195 193 194 193 184 179 172 177 174 177 172 157 146 146 142 203 263 262 265 271 268 274 287 293 289 293 294 301 295 292 290 288 285 284 288 287 279 273 269 262 261 265 267 263 250 237 226 220 209 210
206 219 216 228 244 258 255 250 245 262 229 141 160 185 260 272 258 244 249 231 221 217 223 233 249 255 259 256 225 224 225 220 219 215 207 203 204 207 212 219 212 203 207 204 201 197 194 195 193 196 196 184 175 172 175 172 171 162 153 150 147 169 207 226 256 254 262 265 274 274 281 284 286 283 286 286 285 285 281 279 280 279 282 283 281 274 269 267 263 261 257 256 249 239 230 222 216
212 223 231 235 258 262 253 232 251 243 245 133 137 170 218 212 109 172 178 214 220 222 226 232 243 251 255 255 257 239 231 224 223 218 214 207 205 208 209 211 212 204 204 202 196 196 192 194 194 194 196 180 173 173 172 171 163 161 156 146 161 177 198 223 233 255 258 269 270 273 272 271 267 271 273 278 282 280 280 278 278 277 275 278 279 275 269 265 261 257 257 256 258 247 236 231 227
221 233 242 243 239 256 263 337 313 317 247 179 170 234 223 225 111 212 193 212 219 220 222 226 232 242 245 246 240 232 224 224 220 217 213 212 211 213 212 207 206 209 199 179 185 185 192 197 196 195 195 179 174 171 169 165 161 157 152 158 168 190 215 225 236 227 247 260 267 268 270 268 267 269 269 269 269 268 270 274 274 272 273 271 269 268 269 266 260 257 253 252 251 249 245 232 228
163 211 228 239 250 258 269 230 209 76 282 264 219 223 238 259 260 236 221 217 218 208 211 215 229 238 239 239 234 224 221 220 213 213 212 210 212 214 213 213 210 200 186 177 175 181 187 192 195 196 198 179 170 169 163 162 155 159 163 168 178 192 212 227 234 237 250 256 262 264 267 272 274 268 269 270 270 267 264 266 269 272 274 274 271 271 268 264 266 259 253 250 248 248 245 244 236
250 240 254 330 274 274 256 268 221 228 253 250 220 223 225 241 263 197 210 214 213 211 211 215 221 228 232 230 224 218 218 217 211 209 213 214 217 215 214 212 213 200 184 166 167 167 181 193 197 198 193 179 171 165 162 160 160 166 169 179 189 202 217 225 232 242 243 253 254 262 264 265 266 275 276 276 277 274 271 266 266 267 267 268 268 268 270 274 266 259 258 253 248 244 245 246 243
251 271 6 249 245 235 229 254 253 253 248 259 228 205 236 241 243 173 197 214 214 215 210 211 211 215 221 218 215 215 216 213 211 211 212 216 218 217 212 215 215 175 156 152 152 164 176 191 199 202 196 185 170 163 161 158 163 165 174 183 192 203 215 226 232 238 248 255 261 265 271 276 281 279 275 275 275 272 270 270 268 267 266 264 264 263 262 264 268 265 260 257 249 245 242 241 241
237 260 249 247 264 262 258 231 261 267 260 256 251 246 251 243 242 249 250 212 218 210 204 203 207 209 209 212 211 211 213 214 217 218 218 220 221 221 218 216 210 168 162 157 160 170 183 187 190 193 188 178 166 163 164 165 171 174 172 184 197 215 221 227 234 238 247 255 264 270 275 278 279 281 279 280 276 274 272 272 269 267 265 263 263 263 262 262 261 258 257 256 250 246 244 240 238
222 223 244 244 242 264 272 269 253 252 265 263 267 260 251 245 244 243 242 242 221 214 206 203 208 209 205 210 212 215 215 215 220 226 226 222 222 219 221 205 197 158 146 152 165 176 182 185 188 188 183 175 172 169 171 172 174 181 184 199 207 219 232 238 244 246 253 259 267 276 275 278 281 277 279 278 276 273 271 272 272 269 265 263 261 260 259 259 258 261 258 254 256 254 249 245 240
282 269 261 261 263 254 251 253 246 254 255 261 264 264 265 271 269 215 228 229 235 219 212 209 211 211 210 209 213 215 219 221 220 222 228 232 231 227 211 178 166 166 167 163 163 173 181 188 188 187 188 187 181 176 178 174 180 181 193 200 224 236 244 250 249 253 258 266 277 276 275 274 275 275 276 278 277 277 274 267 265 269 269 264 261 259 258 258 258 261 263 260 254 250 252 251 247